Miscellaneous Local Product
Issued by NWS Hastings, NE

Home | Current Version | Previous Version | Graphics & Text | Print | Product List | Glossary On
Versions: 1 2 3 4 5 6 7 8 9 10 11 12 13 14 15 16 17 18 19 20 21 22 23 24 25 26 27 28 29 30 31 32 33 34 35 36 37 38 39 40 41 42 43 44 45 46 47 48 49 50
000
AXUS43 KGID 041602
MISGRI

GID CWA HOURLY WEATHER ROUNDUP
NATIONAL WEATHER SERVICE HASTINGS NE
1100 AM CDT SAT JUL 04 2015

NOTE: "FAIR" INDICATES FEW OR NO CLOUDS BELOW 12,000 FEET WITH NO
SIGNIFICANT WEATHER AND/OR OBSTRUCTIONS TO VISIBILITY.

...SOUTH CENTRAL NEBRASKA...

CITY           SKY/WX    TMP DP  RH WIND       PRES   REMARKS
GRAND ISLAND   PTSUNNY   75  64  68 S15       29.99S
HASTINGS       MOSUNNY   76  66  71 S9G16     29.99F
KEARNEY        MOSUNNY   75  64  69 S16       29.98F
ORD            PTSUNNY   76  62  62 S14       29.95F
YORK           PTSUNNY   73  63  68 S9        30.00S
AURORA         PTSUNNY   75  65  73 S9        29.99S
LEXINGTON      SUNNY     79  64  60 S14       29.97F
HOLDREGE       SUNNY     75  64  70 S10       29.98F
HEBRON         PTSUNNY   75  59  57 S8        30.01S

...NEBRASKA PANHANDLE...

CITY           SKY/WX    TMP DP  RH WIND       PRES   REMARKS
CHADRON        SUNNY     80  63  55 SW8       29.88F
ALLIANCE       SUNNY     75  63  66 S13       29.93F
SCOTTSBLUFF    SUNNY     77  62  59 VRB6      29.94S
SIDNEY         SUNNY     78  60  53 S12       29.98S

...WESTERN AND NORTH CENTRAL NEBRASKA...

CITY           SKY/WX    TMP DP  RH WIND       PRES   REMARKS
VALENTINE      SUNNY     80  62  54 S16       29.91F
AINSWORTH      MOSUNNY   78  63  60 S12       29.94S
ONEILL         PTSUNNY   74  66  75 S7        29.95F
BROKEN BOW     SUNNY     78  65  63 S12       29.96F
IMPERIAL       MOSUNNY   80  61  52 S13       29.95F
NORTH PLATTE   SUNNY     80  62  54 S13       29.94F
MCCOOK         MOSUNNY   83  63  50 SE12      29.95F

...EASTERN NEBRASKA...

CITY           SKY/WX    TMP DP  RH WIND       PRES   REMARKS
NORFOLK        MOSUNNY   77  66  68 S9        29.98S
SO SIOUX CITY  SUNNY     75  65  70 VRB7      29.97F
TEKAMAH        SUNNY     76  63  64 S8        29.99F
COLUMBUS       PTSUNNY   75  61  60 S6        30.00S
ALBION         CLOUDY    72  63  73 S8        29.98F
OMAHA EPPLEY   MOSUNNY   75  59  57 SE7       30.00F
OFFUTT AFB     SUNNY     74  62  66 SE5       30.00S
MILLARD        SUNNY     76  59  55 SE6       30.00F
LINCOLN        MOSUNNY   77  61  57 S7        30.00F
NEBRASKA CITY  SUNNY     73  58  58 S6        30.02S
BEATRICE       MOSUNNY   74  61  63 S5        30.01R
FALLS CITY     SUNNY     76  62  62 S7        30.02S

...NORTHERN KANSAS...

CITY           SKY/WX    TMP DP  RH WIND       PRES   REMARKS
GOODLAND       SUNNY     79  62  56 S18G24    29.97F
HILL CITY      LGT RAIN  84  64  50 S16G23    29.97F
NORTON         SUNNY     81  57  44 SE14      29.96S
PHILLIPSBURG   SUNNY     82  64  54 SE10G17   29.98S HAZE
SMITH CENTER   SUNNY     79  63  57 S13       30.00S
HAYS           SUNNY     81  63  54 S15G21    29.99F
RUSSELL        SUNNY     79  66  64 S14       29.98F
CONCORDIA      PTSUNNY   76  62  62 S10       30.00F
SALINA         MOSUNNY   82  64  54 SE8       30.00F
TOPEKA         SUNNY     77  62  59 S7        30.02F



USA.gov is the U.S. government's official web portal to all federal, state and local government web resources and services.